�������C�����ː����j�^�v���󋵏��
Date,Time,Cs137(Bq/L),Cs134(Bq/L),�S��(Bq/L)
2019/11/11,00:00,0.94,ND,ND
2019/11/11,00:10,0.93,ND,ND
2019/11/11,00:20,0.85,ND,ND
2019/11/11,00:30,0.85,ND,9.6
2019/11/11,00:40,0.85,ND,ND
2019/11/11,00:50,0.84,ND,9.5
2019/11/11,01:00,0.94,ND,ND
2019/11/11,01:10,0.96,ND,9.7
2019/11/11,01:20,0.96,ND,ND
2019/11/11,01:30,0.93,ND,ND
2019/11/11,01:40,0.93,ND,ND
2019/11/11,01:50,0.93,ND,ND
2019/11/11,02:00,0.94,ND,ND
2019/11/11,02:10,0.91,ND,ND
2019/11/11,02:20,0.89,ND,9.2
2019/11/11,02:30,0.89,ND,10
2019/11/11,02:40,0.89,ND,13
2019/11/11,02:50,0.89,ND,9.5
2019/11/11,03:00,0.86,ND,10
2019/11/11,03:10,0.89,ND,10
2019/11/11,03:20,0.89,ND,ND
2019/11/11,03:30,0.88,ND,ND
2019/11/11,03:40,0.79,ND,ND
2019/11/11,03:50,0.82,ND,9.2
2019/11/11,04:00,0.84,ND,9.3
2019/11/11,04:10,0.93,ND,ND
2019/11/11,04:20,0.95,ND,11
2019/11/11,04:30,0.96,ND,12
2019/11/11,04:40,0.98,ND,12
2019/11/11,04:50,0.99,ND,12
2019/11/11,05:00,1.0,ND,12
2019/11/11,05:10,0.91,ND,12
2019/11/11,05:20,0.94,ND,12
2019/11/11,05:30,0.95,ND,9.5
2019/11/11,05:40,0.95,ND,ND
2019/11/11,05:50,1.0,ND,8.8
2019/11/11,06:00,1.0,ND,ND
2019/11/11,06:10,1.0,ND,ND
2019/11/11,06:20,1.0,ND,ND
2019/11/11,06:30,1.0,ND,ND
2019/11/11,06:40,1.0,ND,ND
2019/11/11,06:50,1.0,ND,ND
2019/11/11,07:00,1.0,ND,ND
2019/11/11,07:10,0.99,ND,ND
2019/11/11,07:20,0.97,ND,ND
2019/11/11,07:30,0.98,ND,ND
2019/11/11,07:40,1.0,ND,ND
2019/11/11,07:50,0.99,ND,ND
2019/11/11,08:00,0.90,ND,ND
2019/11/11,08:10,0.90,ND,ND
2019/11/11,08:20,0.89,ND,ND
2019/11/11,08:30,0.89,ND,ND
2019/11/11,08:40,0.89,ND,ND
2019/11/11,08:50,0.89,ND,ND
2019/11/11,09:00,1.0,ND,ND
2019/11/11,09:10,1.0,ND,ND
2019/11/11,09:20,1.0,ND,9.7
2019/11/11,09:30,1.0,ND,12
2019/11/11,09:40,1.0,ND,10
2019/11/11,09:50,0.91,ND,12
2019/11/11,10:00,0.90,ND,11
2019/11/11,10:10,0.90,ND,14
2019/11/11,10:20,0.90,ND,14
2019/11/11,10:30,0.99,ND,13
2019/11/11,10:40,0.98,ND,13
2019/11/11,10:50,0.99,ND,11
2019/11/11,11:00,1.0,ND,14
2019/11/11,11:10,0.99,ND,13
2019/11/11,11:20,0.99,ND,12
2019/11/11,11:30,1.0,ND,11
2019/11/11,11:40,1.0,ND,12
2019/11/11,11:50,0.99,ND,15
2019/11/11,12:00,0.98,ND,15
2019/11/11,12:10,0.98,ND,12
2019/11/11,12:20,0.96,ND,12
2019/11/11,12:30,0.96,ND,13
2019/11/11,12:40,0.95,ND,13
2019/11/11,12:50,0.96,ND,11
2019/11/11,13:00,0.85,ND,11
2019/11/11,13:10,0.94,ND,14
2019/11/11,13:20,0.95,ND,14
2019/11/11,13:30,0.95,ND,14
2019/11/11,13:40,0.96,ND,13
2019/11/11,13:50,0.97,ND,14
2019/11/11,14:00,0.96,ND,12
2019/11/11,14:10,0.85,ND,9.9
2019/11/11,14:20,0.87,ND,10
2019/11/11,14:30,0.89,ND,10
2019/11/11,14:40,0.87,ND,11
2019/11/11,14:50,0.83,ND,10
2019/11/11,15:00,0.95,ND,9.3
2019/11/11,15:10,0.84,ND,9.7
2019/11/11,15:20,0.82,ND,9.2
2019/11/11,15:30,0.82,ND,ND
2019/11/11,15:40,0.81,ND,ND
2019/11/11,15:50,0.82,ND,ND
2019/11/11,16:00,0.82,ND,11
2019/11/11,16:10,0.92,ND,12
2019/11/11,16:20,0.94,ND,9.5
2019/11/11,16:30,0.93,ND,13
2019/11/11,16:40,0.92,ND,12
2019/11/11,16:50,0.94,ND,10
2019/11/11,17:00,0.93,ND,10
2019/11/11,17:10,0.93,ND,ND
2019/11/11,17:20,0.91,ND,9.7
2019/11/11,17:30,0.92,ND,10
2019/11/11,17:40,0.91,ND,10
2019/11/11,17:50,0.90,ND,14
2019/11/11,18:00,0.89,ND,11
2019/11/11,18:10,0.89,ND,12
2019/11/11,18:20,0.87,ND,14
2019/11/11,18:30,0.88,ND,14
2019/11/11,18:40,0.88,ND,15
2019/11/11,18:50,0.87,ND,16
2019/11/11,19:00,0.87,ND,17
2019/11/11,19:10,0.78,ND,17
2019/11/11,19:20,0.79,ND,17
2019/11/11,19:30,0.78,ND,16
2019/11/11,19:40,0.79,ND,14
2019/11/11,19:50,0.90,ND,13
2019/11/11,20:00,0.82,ND,13
2019/11/11,20:10,0.93,ND,16
2019/11/11,20:20,0.95,ND,13
2019/11/11,20:30,0.95,ND,12
2019/11/11,20:40,0.93,ND,14
2019/11/11,20:50,0.92,ND,13
2019/11/11,21:00,0.90,ND,11
2019/11/11,21:10,0.90,ND,ND
2019/11/11,21:20,0.90,ND,ND
2019/11/11,21:30,0.89,ND,11
2019/11/11,21:40,0.90,ND,9.0
2019/11/11,21:50,0.81,ND,ND
2019/11/11,22:00,0.82,ND,ND
2019/11/11,22:10,0.81,ND,ND
2019/11/11,22:20,0.80,ND,ND
2019/11/11,22:30,0.91,ND,ND
2019/11/11,22:40,0.80,ND,ND
2019/11/11,22:50,0.81,ND,10
2019/11/11,23:00,0.80,ND,10
2019/11/11,23:10,0.81,ND,13
2019/11/11,23:20,0.82,ND,15
2019/11/11,23:30,0.83,ND,14
2019/11/11,23:40,0.85,ND,14
2019/11/11,23:50,0.84,ND,11
